Regional Weather Roundup
Issued by NWS

Home | Current Version | Previous Version | Graphics & Text | Print | Product List | Glossary On
Versions: 1 2 3 4 5 6 7 8 9 10 11 12 13 14 15 16 17 18 19 20 21 22 23 24 25 26 27
000
ASUS45 KCYS 302210
RWRWY

WYOMING REGIONAL WEATHER ROUNDUP
NATIONAL WEATHER SERVICE CHEYENNE WY
400 PM MDT SAT APR 30 2016

NOTE:  "FAIR" INDICATES FEW OR NO CLOUDS BELOW 12,000 FEET
WITH NO SIGNIFICANT WEATHER AND/OR OBSTRUCTIONS TO VISIBILITY.

WYZ001-302300-
YELLOWSTONE NATIONAL PARK

CITY           SKY/WX    TMP DP  RH WIND       PRES   REMARKS
LK YELLOWSTONE   N/A     39  23  52 VRB5      30.14R
W YELLOWSTONE  NOT AVBL

$$
WYZ002>013-054>058-071-098>099-302300-
NORTHERN WYOMING

CITY           SKY/WX    TMP DP  RH WIND       PRES   REMARKS
JACKSON        PTSUNNY   48  28  46 NE3       30.03S
CODY           CLOUDY    45  34  65 N10G21    30.16S
GREYBULL       CLOUDY    56  26  31 E15       30.09R
WORLAND        CLOUDY    50  38  63 S9        30.12R
SHERIDAN       CLOUDY    50  35  56 W3        30.19F
BUFFALO          N/A    N/A N/A N/A MISG      30.19S
GILLETTE       CLOUDY    46  32  58 NE20      30.15S
HULETT         MOCLDY    48  32  53 NE14G22   30.16R
NEWCASTLE      FAIR      45  28  53 NE9G18    30.12S

$$
WYZ014>020-022>026-101>103-302300-
CENTRAL WYOMING

CITY           SKY/WX    TMP DP  RH WIND       PRES   REMARKS
BIG PINEY      CLOUDY    44  30  57 S14       30.06R
PINEDALE       CLOUDY    48  23  37 NE6       30.05S
DUBOIS         CLOUDY    41  30  65 SE20      30.09S
LANDER         MIX PCPN  37  34  89 SW6       30.14S WCI  32
RIVERTON       LGT RAIN  43  35  73 E9        30.14S
CASPER         CLOUDY    40  32  73 NE21G26   30.12S WCI  30
DOUGLAS        CLOUDY    39  35  86 NE9       30.13R WCI  33

$$
WYZ021-027>030-104>119-302300-
SOUTHERN WYOMING

CITY           SKY/WX    TMP DP  RH WIND       PRES   REMARKS
EVANSTON       LGT RAIN  39  31  72 E21G29    30.05S WCI  29
KEMMERER       LGT RAIN  36  34  93 E16       30.08R WCI  26
FORT BRIDGER   CLOUDY    39  39 100 E14G20    30.10S WCI  31
ROCK SPRINGS   CLOUDY    38  31  76 NE21G30   30.08R WCI  28
DIXON          FAIR      44  23  42 NE16      30.02S
RAWLINS        CLOUDY    34  30  85 N13       30.08R WCI  25
SARATOGA       MOCLDY    36  27  69 NE21      30.06R WCI  24
LARAMIE        FLURRIES  31  26  82 NE13      30.05R WCI  21
CHEYENNE       LGT SNOW  33  29  85 N18G28    30.04R FOG     WCI  22
TORRINGTON     LGT RAIN  37  35  92 N14G21    30.07R WCI  28
PINE BLUFFS    LGT SNOW  32  32 100 N21G30    30.03R WCI  20

$$




USA.gov is the U.S. government's official web portal to all federal, state and local government web resources and services.